DW8622 Weather Reports


Display with metric or nautical units.
time (UTC)temp
F
wind
direction
speed
MPH
gust
MPH
rain 1hr
in
rain 24hr
in
rain mn
in
humidity
%
barometer
mb
20260903160006 73 267 9.0 17.0 0.00 0.06 0.06 75 1016.2
20260903155506 73 268 9.0 17.0 0.00 0.06 0.06 76 1016.4
20260903155006 73 265 9.0 17.0 0.00 0.06 0.06 75 1016.4
20260903154506 73 263 10.0 19.0 0.00 0.06 0.06 74 1016.4
20260903154006 74 267 9.0 20.0 0.00 0.06 0.06 73 1016.4
20260903153505 73 266 9.0 20.0 0.00 0.06 0.06 73 1016.4
20260903153006 74 270 9.0 19.0 0.00 0.06 0.06 73 1016.5
20260903152006 74 270 12.0 23.0 0.00 0.06 0.06 72 1016.5
20260903151506 74 264 13.0 23.0 0.00 0.06 0.06 72 1016.4
20260903151006 73 265 12.0 20.0 0.00 0.06 0.06 73 1016.5
20260903150506 74 267 10.0 19.0 0.00 0.06 0.06 74 1016.6
20260903150006 74 261 11.0 21.0 0.00 0.06 0.06 73 1016.5
20260903145506 74 257 11.0 22.0 0.00 0.06 0.06 73 1016.5
20260903145006 74 256 10.0 22.0 0.00 0.06 0.06 74 1016.6
20260903144506 73 259 9.0 18.0 0.00 0.06 0.06 75 1016.5
20260903143506 74 252 10.0 20.0 0.00 0.06 0.06 74 1016.5
20260903143005 75 255 9.0 20.0 0.00 0.06 0.06 72 1016.5
20260903142506 75 264 10.0 22.0 0.00 0.06 0.06 73 1016.5
20260903142005 75 267 11.0 22.0 0.00 0.06 0.06 71 1016.4
20260903141505 74 263 11.0 21.0 0.00 0.06 0.06 72 1016.4
20260903141006 74 263 11.0 21.0 0.00 0.06 0.06 72 1016.7
20260903140506 74 266 10.0 18.0 0.00 0.06 0.06 71 1016.5
20260903140005 75 268 9.0 17.0 0.00 0.06 0.06 71 1016.5
20260903135506 74 269 9.0 18.0 0.00 0.06 0.06 72 1016.3
20260903135006 73 269 9.0 18.0 0.00 0.06 0.06 72 1016.5
20260903134506 72 270 10.0 18.0 0.00 0.06 0.06 73 1016.4
20260903133505 72 270 8.0 17.0 0.00 0.06 0.06 75 1016.6
20260903133006 72 269 9.0 17.0 0.00 0.06 0.06 74 1016.5
20260903132506 72 269 10.0 19.0 0.00 0.06 0.06 73 1016.4
20260903132005 72 269 11.0 19.0 0.00 0.06 0.06 74 1016.3
20260903131506 71 266 11.0 25.0 0.00 0.06 0.06 73 1016.3
20260903131006 71 265 10.0 25.0 0.00 0.06 0.06 74 1016.2
20260903130506 72 268 9.0 18.0 0.00 0.06 0.06 75 1016.2
20260903130006 72 263 9.0 18.0 0.00 0.06 0.06 75 1016.2
20260903125505 72 264 10.0 18.0 0.00 0.06 0.06 75 1016.2
20260903125005 72 263 10.0 20.0 0.00 0.06 0.06 75 1016.2
20260903124006 72 269 10.0 19.0 0.00 0.06 0.06 76 1016.2
20260903123506 72 264 11.0 23.0 0.00 0.06 0.06 77 1016.1
20260903123006 72 263 11.0 23.0 0.00 0.06 0.06 75 1016.2
20260903122506 73 257 11.0 19.0 0.00 0.06 0.06 75 1016.2
20260903122006 73 258 11.0 22.0 0.00 0.06 0.06 73 1016.0
20260903120505 74 261 11.0 22.0 0.00 0.06 0.06 74 1015.9
20260903120006 73 258 10.0 19.0 0.00 0.06 0.06 78 1015.9
20260903115505 73 257 10.0 19.0 0.00 0.06 0.06 77 1016.0
20260903115005 73 260 8.0 19.0 0.00 0.06 0.06 77 1015.9
20260903114505 74 254 9.0 19.0 0.00 0.06 0.06 76 1015.9
20260903114005 74 253 11.0 22.0 0.00 0.06 0.06 78 1015.9
20260903113505 73 259 11.0 22.0 0.00 0.06 0.06 79 1015.9
20260903113005 72 262 10.0 21.0 0.00 0.06 0.06 78 1016.0
20260903112506 73 263 9.0 19.0 0.00 0.06 0.06 81 1016.0
20260903112005 72 263 10.0 19.0 0.00 0.06 0.06 81 1015.9
20260903111505 71 263 10.0 19.0 0.00 0.06 0.06 83 1016.0
20260903110005 71 256 11.0 22.0 0.00 0.07 0.06 81 1016.0
20260903105005 71 259 12.0 23.0 0.00 0.07 0.06 81 1016.0
20260903104505 71 259 11.0 22.0 0.00 0.07 0.06 81 1016.0
20260903104005 71 262 10.0 22.0 0.00 0.07 0.06 81 1016.0
20260903103506 71 258 10.0 17.0 0.00 0.07 0.06 81 1015.9
20260903103005 71 254 10.0 18.0 0.00 0.07 0.06 82 1015.9
20260903102505 71 260 9.0 18.0 0.00 0.07 0.06 81 1015.9
20260903102005 71 263 10.0 17.0 0.00 0.07 0.06 82 1016.0
20260903101506 71 263 10.0 17.0 0.00 0.07 0.06 82 1016.0
20260903101005 71 262 10.0 20.0 0.00 0.07 0.06 84 1015.9
20260903100505 70 258 10.0 20.0 0.00 0.07 0.06 85 1015.8
20260903100005 70 259 9.0 18.0 0.00 0.07 0.06 86 1015.8
20260903095505 70 254 10.0 18.0 0.00 0.07 0.06 86 1015.8
20260903095006 70 251 11.0 20.0 0.00 0.07 0.06 86 1015.8
20260903094506 70 252 10.0 20.0 0.00 0.07 0.06 86 1015.7
20260903094005 70 256 10.0 17.0 0.00 0.07 0.06 86 1015.7
20260903093505 70 259 8.0 17.0 0.00 0.07 0.06 86 1015.7
20260903093005 70 256 7.0 15.0 0.00 0.07 0.06 88 1015.7
20260903092006 69 259 8.0 19.0 0.00 0.07 0.06 88 1015.7
20260903091505 69 266 8.0 19.0 0.00 0.07 0.06 89 1015.9
20260903091005 69 268 7.0 14.0 0.00 0.07 0.06 91 1015.7
20260903090506 69 258 6.0 14.0 0.00 0.07 0.06 91 1015.5
20260903090005 69 259 7.0 16.0 0.00 0.07 0.06 92 1015.5
20260903085505 69 256 8.0 16.0 0.00 0.07 0.06 92 1015.4
20260903085007 69 249 8.0 16.0 0.00 0.07 0.06 93 1015.4
20260903084505 68 251 7.0 14.0 0.00 0.07 0.06 93 1015.3
20260903083006 68 229 5.0 13.0 0.00 0.07 0.06 94 1015.0
20260903082505 67 238 4.0 13.0 0.00 0.07 0.06 95 1015.0
20260903082005 67 251 5.0 12.0 0.01 0.07 0.06 95 1015.1
20260903081505 67 247 5.0 12.0 0.01 0.07 0.06 95 1015.2
20260903081005 67 239 5.0 14.0 0.01 0.07 0.06 95 1015.2
20260903080506 67 231 6.0 14.0 0.01 0.07 0.06 95 1015.2
20260903080006 67 240 6.0 12.0 0.01 0.07 0.06 95 1015.1
20260903075006 66 242 7.0 15.0 0.02 0.07 0.06 95 1015.2
20260903074505 66 251 7.0 15.0 0.02 0.07 0.06 95 1015.1
20260903074006 66 248 7.0 13.0 0.02 0.07 0.06 95 1015.3
20260903073505 66 242 7.0 13.0 0.03 0.07 0.06 95 1015.2
20260903073006 66 234 6.0 16.0 0.04 0.07 0.06 95 1015.3
20260903072506 66 229 7.0 16.0 0.04 0.07 0.06 95 1015.1
20260903072005 66 231 6.0 14.0 0.04 0.06 0.05 95 1015.2
20260903071506 66 233 6.0 16.0 0.04 0.06 0.05 95 1015.0
20260903070506 65 234 5.0 11.0 0.04 0.06 0.05 94 1015.3
20260903070005 65 230 5.0 11.0 0.03 0.06 0.04 94 1015.3
20260903065005 65 219 5.0 13.0 0.03 0.05 0.03 94 1015.3
20260903064506 65 216 5.0 13.0 0.03 0.05 0.03 94 1015.2
20260903063505 65 218 5.0 11.0 0.02 0.04 0.02 93 1015.2
20260903063005 65 219 4.0 12.0 0.02 0.03 0.02 93 1015.2
20260903062505 65 216 5.0 12.0 0.02 0.03 0.02 93 1015.2
20260903062005 65 223 5.0 11.0 0.01 0.02 0.01 92 1015.2
20260903061505 65 223 5.0 11.0 0.01 0.02 0.01 92 1015.1
20260903061005 65 221 5.0 11.0 0.01 0.02 0.01 91 1015.1
20260903060505 66 219 5.0 13.0 0.01 0.02 0.01 90 1015.1
20260903060006 66 215 5.0 13.0 0.01 0.02 0.01 90 1015.0
20260903055505 66 228 5.0 13.0 0.00 0.02 0.00 89 1015.0
20260903053506 67 249 7.0 18.0 0.00 0.02 0.00 87 1015.0
20260903053005 67 249 8.0 18.0 0.00 0.02 0.00 87 1015.1
20260903052505 67 240 8.0 16.0 0.00 0.02 0.00 86 1014.9
20260903052005 67 238 8.0 16.0 0.00 0.02 0.00 86 1015.0
20260903051506 67 231 7.0 18.0 0.00 0.02 0.00 85 1015.0
20260903051005 67 230 7.0 18.0 0.00 0.02 0.00 85 1014.9
20260903050505 67 234 6.0 12.0 0.00 0.02 0.00 85 1014.8
20260903050006 67 223 5.0 12.0 0.00 0.02 0.00 85 1014.8
20260903045505 66 222 6.0 14.0 0.00 0.02 0.00 85 1014.9
20260903045005 66 222 7.0 14.0 0.00 0.02 0.00 86 1015.0
20260903044505 66 219 7.0 15.0 0.00 0.02 0.00 86 1014.9
20260903044006 66 218 6.0 15.0 0.00 0.02 0.00 87 1015.0
20260903043505 66 214 5.0 13.0 0.00 0.02 0.00 87 1015.0
20260903043005 66 210 5.0 13.0 0.00 0.02 0.00 87 1015.0
20260903042005 66 211 6.0 16.0 0.00 0.02 0.00 86 1014.7
20260903041505 66 214 8.0 17.0 0.00 0.02 0.00 85 1014.8
20260903041005 66 216 8.0 17.0 0.00 0.02 0.00 85 1014.9
20260903040505 66 217 7.0 17.0 0.00 0.02 0.00 85 1014.9
20260903040008 67 221 7.0 17.0 0.00 0.02 0.00 84 1015.0
20260903035505 66 218 7.0 15.0 0.00 0.02 0.00 84 1015.0
20260903035006 66 214 7.0 19.0 0.00 0.02 0.00 84 1015.1
20260903034505 66 217 7.0 19.0 0.00 0.02 0.00 84 1015.2
20260903034005 66 220 8.0 17.0 0.00 0.02 0.00 84 1015.2
20260903033505 66 224 7.0 16.0 0.00 0.02 0.00 84 1015.4
20260903032505 66 219 6.0 16.0 0.00 0.02 0.00 85 1015.7
20260903032005 65 216 5.0 12.0 0.00 0.02 0.00 85 1015.6
20260903031506 65 213 5.0 14.0 0.00 0.02 0.00 85 1015.3
20260903031005 65 209 7.0 15.0 0.00 0.02 0.00 85 1015.3
20260903030505 65 208 7.0 15.0 0.00 0.02 0.00 85 1015.5
20260903030006 66 212 7.0 16.0 0.00 0.02 0.00 85 1015.2
20260903025505 66 214 8.0 22.0 0.00 0.02 0.00 84 1015.2
20260903025007 66 222 9.0 22.0 0.00 0.02 0.00 83 1015.2
20260903024505 66 223 9.0 18.0 0.00 0.02 0.00 83 1015.4
20260903024005 67 214 8.0 18.0 0.00 0.02 0.00 81 1015.4
20260903023505 67 217 6.0 16.0 0.00 0.02 0.00 81 1015.5
20260903022505 66 220 5.0 13.0 0.00 0.02 0.00 82 1015.8
20260903022005 66 224 5.0 14.0 0.00 0.02 0.00 82 1015.8
20260903021005 66 226 6.0 15.0 0.00 0.02 0.00 82 1016.0
20260903020506 66 222 5.0 12.0 0.00 0.02 0.00 82 1015.9
20260903020005 66 221 5.0 12.0 0.00 0.02 0.00 81 1015.9
20260903015505 66 215 6.0 15.0 0.00 0.02 0.00 81 1015.9
20260903015005 66 211 5.0 15.0 0.00 0.02 0.00 80 1015.9
20260903014505 66 212 4.0 13.0 0.00 0.02 0.00 80 1015.9
20260903014005 66 209 5.0 13.0 0.00 0.02 0.00 80 1016.0
20260903013006 66 213 4.0 12.0 0.00 0.02 0.00 79 1016.1
20260903012505 66 210 4.0 12.0 0.00 0.02 0.00 78 1016.1
20260903011506 66 205 5.0 12.0 0.00 0.02 0.00 78 1016.1
20260903011005 66 207 6.0 18.0 0.00 0.02 0.00 77 1016.2
20260903010506 66 207 6.0 18.0 0.00 0.02 0.00 77 1016.3
20260903010005 66 206 5.0 13.0 0.00 0.02 0.00 77 1016.5
20260903005505 66 203 5.0 13.0 0.00 0.02 0.00 77 1016.5
20260903005005 66 205 5.0 13.0 0.00 0.02 0.00 77 1016.5
20260903004505 66 212 5.0 16.0 0.00 0.02 0.00 78 1016.5
20260903004005 66 213 5.0 16.0 0.00 0.02 0.00 78 1016.7
20260903003505 65 210 4.0 12.0 0.00 0.02 0.00 78 1016.7
20260903003005 66 207 5.0 17.0 0.00 0.02 0.00 78 1016.8
20260903002505 66 209 6.0 17.0 0.00 0.02 0.00 76 1016.9
20260903002005 66 210 5.0 14.0 0.00 0.02 0.00 76 1016.9
20260903001506 66 210 5.0 11.0 0.00 0.02 0.00 76 1016.9
20260903001005 66 212 5.0 11.0 0.00 0.02 0.00 75 1016.9
20260903000005 66 206 6.0 13.0 0.00 0.02 0.00 75 1017.0
20260902235505 66 209 5.0 13.0 0.00 0.02 0.00 76 1017.0
20260902235005 66 205 5.0 12.0 0.00 0.02 0.00 75 1017.0
20260902234505 66 206 5.0 14.0 0.00 0.02 0.00 75 1017.2
20260902234005 66 210 6.0 14.0 0.00 0.02 0.00 75 1017.2
20260902233005 66 207 6.0 15.0 0.00 0.02 0.00 75 1017.1
20260902232505 66 206 6.0 13.0 0.00 0.02 0.00 75 1017.2
20260902232006 66 208 6.0 13.0 0.00 0.02 0.00 76 1017.2
20260902231505 65 208 4.0 12.0 0.00 0.02 0.00 77 1017.3
20260902231005 65 207 3.0 10.0 0.00 0.02 0.00 78 1017.5
20260902230506 65 196 2.0 9.0 0.00 0.02 0.00 79 1017.5
20260902230005 65 189 2.0 10.0 0.00 0.02 0.00 79 1017.5
20260902225506 64 188 2.0 10.0 0.00 0.02 0.00 80 1017.5
20260902225006 64 188 3.0 7.0 0.00 0.02 0.00 81 1017.6
20260902224505 64 192 2.0 7.0 0.00 0.02 0.00 81 1017.6
20260902224005 64 197 1.0 4.0 0.00 0.02 0.00 82 1017.7
20260902223506 64 196 1.0 4.0 0.00 0.02 0.00 81 1017.8
20260902222506 64 206 2.0 8.0 0.00 0.02 0.00 81 1017.8
20260902222005 64 214 2.0 7.0 0.00 0.02 0.00 80 1017.9
20260902221505 65 223 3.0 10.0 0.00 0.02 0.00 79 1018.0
20260902221005 65 228 5.0 14.0 0.00 0.02 0.00 78 1018.1
20260902220505 65 237 7.0 14.0 0.00 0.02 0.00 77 1018.2
20260902220005 66 244 8.0 20.0 0.00 0.02 0.00 76 1018.4
20260902214506 66 229 5.0 11.0 0.00 0.02 0.02 76 1018.1
20260902214005 66 230 5.0 13.0 0.00 0.02 0.02 76 1018.0
20260902213006 66 219 4.0 10.0 0.00 0.02 0.02 77 1018.0
20260902212505 66 194 4.0 12.0 0.00 0.02 0.02 79 1018.0
20260902212005 66 183 2.0 12.0 0.00 0.02 0.02 80 1018.0
20260902211506 65 190 0.0 4.0 0.00 0.02 0.02 82 1018.0
20260902211006 65 0 0.0 0.0 0.00 0.02 0.02 83 1018.0
20260902210506 65 0 0.0 0.0 0.00 0.02 0.02 83 1018.1
20260902210006 65 0 0.0 0.0 0.00 0.02 0.02 84 1018.1
20260902205506 65 0 0.0 0.0 0.00 0.02 0.02 84 1018.0
20260902205005 65 0 0.0 0.0 0.00 0.02 0.02 84 1018.2
20260902204506 65 0 0.0 0.0 0.00 0.02 0.02 84 1018.2
20260902204006 65 0 0.0 0.0 0.00 0.02 0.02 84 1018.2
20260902203506 65 0 0.0 0.0 0.00 0.02 0.02 84 1018.2
20260902203007 65 0 0.0 0.0 0.00 0.02 0.02 84 1018.3
20260902202506 65 0 0.0 0.0 0.00 0.02 0.02 84 1018.3
20260902202005 65 0 0.0 0.0 0.00 0.02 0.02 83 1018.3
20260902201506 65 0 0.0 0.0 0.00 0.02 0.02 83 1018.4
20260902201006 65 0 0.0 0.0 0.00 0.02 0.02 83 1018.5
20260902200505 65 0 0.0 0.0 0.00 0.02 0.02 83 1018.6
20260902200006 65 0 0.0 0.0 0.00 0.02 0.02 83 1018.6
20260902195506 65 0 0.0 0.0 0.00 0.02 0.02 83 1018.6
20260902195006 65 0 0.0 0.0 0.00 0.02 0.02 83 1018.6
20260902194506 65 0 0.0 0.0 0.00 0.02 0.02 84 1018.6
20260902194006 65 0 0.0 0.0 0.00 0.02 0.02 84 1018.6
20260902193505 66 0 0.0 0.0 0.00 0.02 0.02 84 1018.7
20260902193006 66 201 0.0 5.0 0.00 0.02 0.02 84 1018.7
20260902192506 66 196 1.0 6.0 0.00 0.02 0.02 83 1018.8
20260902192007 66 204 2.0 8.0 0.00 0.02 0.02 82 1018.8
20260902191506 66 208 2.0 8.0 0.00 0.02 0.02 82 1018.9
20260902191005 67 207 2.0 5.0 0.00 0.02 0.02 80 1018.9
20260902190507 67 209 1.0 5.0 0.00 0.02 0.02 80 1018.8
20260902185506 66 207 1.0 6.0 0.00 0.02 0.02 79 1018.8
20260902185006 66 210 1.0 4.0 0.00 0.02 0.02 79 1018.7
20260902184506 67 212 1.0 4.0 0.00 0.02 0.02 79 1018.7
20260902184006 67 213 1.0 4.0 0.00 0.02 0.02 79 1018.7
20260902183506 67 209 1.0 4.0 0.00 0.02 0.02 79 1018.7
20260902183006 67 202 1.0 4.0 0.00 0.02 0.02 78 1018.7
20260902182005 67 197 1.0 4.0 0.00 0.02 0.02 78 1018.7
20260902181506 67 202 1.0 7.0 0.00 0.02 0.02 77 1018.8
20260902181006 67 207 1.0 7.0 0.00 0.02 0.02 77 1018.8
20260902180507 67 208 1.0 7.0 0.00 0.02 0.02 76 1018.9
20260902180007 67 210 2.0 7.0 0.00 0.02 0.02 76 1018.9
20260902175506 67 228 2.0 7.0 0.00 0.02 0.02 76 1018.9
20260902175006 67 248 3.0 8.0 0.00 0.02 0.02 75 1018.9
20260902174507 68 253 3.0 10.0 0.00 0.02 0.02 75 1018.9
20260902174005 68 258 4.0 10.0 0.00 0.02 0.02 75 1018.9
20260902173506 68 249 3.0 9.0 0.00 0.02 0.02 75 1019.0
20260902173006 68 246 3.0 8.0 0.00 0.02 0.02 75 1018.9
20260902172506 68 254 3.0 8.0 0.00 0.02 0.02 75 1018.8
20260902172006 68 247 2.0 8.0 0.00 0.02 0.02 76 1018.8
20260902171506 68 239 2.0 8.0 0.00 0.02 0.02 76 1018.9
20260902171006 68 227 3.0 8.0 0.00 0.02 0.02 76 1018.8
20260902170505 68 213 3.0 9.0 0.00 0.02 0.02 75 1018.9
20260902170005 68 213 4.0 10.0 0.00 0.02 0.02 75 1018.8
20260902165505 68 221 4.0 11.0 0.00 0.02 0.02 74 1018.9
20260902165006 68 225 3.0 11.0 0.00 0.02 0.02 74 1018.9
20260902164506 68 223 3.0 8.0 0.00 0.02 0.02 74 1019.0
20260902163506 69 224 2.0 8.0 0.00 0.02 0.02 74 1018.9
20260902163006 69 225 3.0 10.0 0.00 0.02 0.02 73 1019.0
20260902162006 69 240 4.0 10.0 0.00 0.02 0.02 72 1019.1
20260902161505 69 224 4.0 11.0 0.00 0.02 0.02 73 1019.1
20260902161005 68 227 4.0 11.0 0.00 0.02 0.02 72 1019.1